Martha's Vineyard, MA

3:12 AM EDT on September 21, 2017 (GMT -0400)
Martha's Vineyard

Weather History for KMVY - August, 2014

Change the Weather History Date:

Saturday, August 16, 2014

  Actual Average Record
Temperature  
Mean Temperature 62 °F -  
Max Temperature 73 °F 77 °F 88 °F (1978)
Min Temperature 52 °F 61 °F 48 °F (2001)
Degree Days  
Heating Degree Days 2    
Growing Degree Days 12 (Base 50)    
Moisture  
Dew Point 58 °F    
Average Humidity 79    
Maximum Humidity 100    
Minimum Humidity 55    
Precipitation  
Precipitation 0.00 in - - ()
Sea Level Pressure  
Sea Level Pressure 29.98 in    
Wind  
Wind Speed 6 mph (SW)    
Max Wind Speed 17 mph    
Max Gust Speed 25 mph    
Visibility 10 miles    
Events      
Averages and records for this station are not official NWS values.
T = Trace of Precipitation, MM = Missing Value Source: NWS Daily Summary

Daily Weather History Graph

Daily Weather History Graph

Search for Another Location

Airport or City:

Trip Planner

Search our weather history database for the weather conditions in past years. The results will help you decide how hot, cold, wet, or windy it might be!

Date:

Astronomy

Aug. 16, 2014 Rise Set
Actual Time 5:52 AM EDT 7:40 PM EDT
Civil Twilight 5:22 AM EDT 8:09 PM EDT
Nautical Twilight 4:46 AM EDT 8:45 PM EDT
Astronomical Twilight 4:07 AM EDT 9:24 PM EDT
Moon 11:16 PM EDT (8/16) 12:40 PM EDT (8/16)
Length of Visible Light 14h 47m
Length of Day
13h 47m
Waning Gibbous, 59% of the Moon is Illuminated
Aug 16
Waning Gibbous
Aug 17
Last Quarter
Aug 25
New
Sep 2
First Quarter
Sep 8
Full

Hourly Weather History & Observations

Time (EDT) Temp. Dew Point Humidity Pressure Visibility Wind Dir Wind Speed Gust Speed Precip Events Conditions
1:53 AM 55.0 °F 53.1 °F 93% 29.96 in 10.0 mi Calm Calm - N/A   Overcast
2:53 AM 59.0 °F 55.0 °F 87% 29.96 in 10.0 mi SW 4.6 mph - N/A   Overcast
3:53 AM 59.0 °F 55.0 °F 87% 29.96 in 10.0 mi West 4.6 mph - N/A   Overcast
4:53 AM 57.0 °F 55.0 °F 93% 29.97 in 10.0 mi WSW 4.6 mph - N/A   Clear
5:53 AM 52.0 °F 52.0 °F 100% 29.98 in 10.0 mi WSW 5.8 mph - N/A   Clear
6:53 AM 55.9 °F 54.0 °F 93% 29.99 in 10.0 mi SW 3.5 mph - N/A   Clear
7:53 AM 64.9 °F 59.0 °F 81% 30.00 in 10.0 mi SW 5.8 mph - N/A   Clear
8:53 AM 68.0 °F 57.0 °F 68% 30.01 in 10.0 mi WSW 9.2 mph - N/A   Clear
9:53 AM 71.1 °F 54.0 °F 55% 30.01 in 10.0 mi WSW 12.7 mph 21.9 mph N/A   Clear
10:53 AM 72.0 °F 57.0 °F 59% 30.02 in 10.0 mi SW 12.7 mph - N/A   Clear
11:53 AM 73.9 °F 57.9 °F 57% 30.01 in 10.0 mi SW 13.8 mph 20.7 mph N/A   Partly Cloudy
12:53 PM 73.9 °F 57.9 °F 57% 30.01 in 10.0 mi SW 12.7 mph 25.3 mph N/A   Clear
1:53 PM 72.0 °F 60.1 °F 66% 30.00 in 10.0 mi SSW 17.3 mph - N/A   Clear
2:53 PM 73.9 °F 63.0 °F 68% 29.98 in 10.0 mi SW 12.7 mph 21.9 mph N/A   Clear
3:53 PM 73.0 °F 57.0 °F 57% 29.98 in 10.0 mi SW 13.8 mph 21.9 mph N/A   Clear
4:53 PM 70.0 °F 59.0 °F 68% 29.98 in 10.0 mi SW 11.5 mph 21.9 mph N/A   Clear
5:53 PM 68.0 °F 59.0 °F 73% 29.97 in 10.0 mi SW 10.4 mph - N/A   Clear
6:53 PM 68.0 °F 61.0 °F 78% 29.97 in 10.0 mi SSW 8.1 mph - N/A   Clear
7:53 PM 64.9 °F 62.1 °F 90% 29.97 in 10.0 mi SSW 6.9 mph - N/A   Clear
8:53 PM 64.0 °F 63.0 °F 96% 29.97 in 10.0 mi SSW 4.6 mph - N/A   Clear
9:53 PM 64.0 °F 63.0 °F 96% 29.97 in 10.0 mi SW 4.6 mph - N/A   Scattered Clouds
10:53 PM 64.0 °F 63.0 °F 96% 29.95 in 10.0 mi South 3.5 mph - N/A   Partly Cloudy
11:53 PM 64.0 °F 63.0 °F 96% 29.94 in 10.0 mi South 3.5 mph - N/A   Clear